Location: Allison's Woods
(35.8809°N, 80.8140°W)
Time: 12:34:16
(UTC-04:00)

Iridium 39 - Visible Passes

Search period start: 04 September 2015 00:00
Search period end: 14 September 2015 00:00
Orbit: 776 x 779 km, 86.4° (Epoch: 02 September)

Date Brightness Start Highest point End Pass type
(mag) Time Alt. Az. Time Alt. Az. Time Alt. Az.
04 Sep 6.8 21:40:30 35° ENE 21:40:30 35° ENE 21:44:19 10° NNE visible
04 Sep 8.3 23:20:57 20° WNW 23:20:57 20° WNW 23:24:09 10° NNW visible
05 Sep 7.4 21:06:44 20° ENE 21:06:44 20° ENE 21:09:58 10° NE visible
05 Sep 7.3 22:47:10 37° WNW 22:47:10 37° WNW 22:51:26 10° NNW visible
06 Sep 7.9 20:32:55 10° ENE 20:32:55 10° ENE 20:33:39 10° ENE visible
06 Sep 6.2 22:13:21 70° NW 22:13:21 70° NW 22:18:12 10° N visible
07 Sep 6.0 21:39:30 57° E 21:39:30 57° E 21:44:36 10° N visible
07 Sep 8.6 23:19:56 13° W 23:20:43 14° WNW 23:23:09 10° NW visible
08 Sep 6.8 21:05:34 29° E 21:06:03 30° E 21:10:35 10° NNE visible
08 Sep 7.8 22:46:00 25° W 22:46:48 26° W 22:51:05 10° NNW visible
09 Sep 7.5 20:31:35 15° E 20:32:43 16° E 20:35:53 10° NE visible
09 Sep 6.8 22:12:00 43° WSW 22:13:04 49° W 22:18:07 10° N visible
10 Sep 5.9 21:37:54 46° S 21:39:29 85° E 21:44:44 10° N visible
11 Sep 6.3 21:03:41 27° SE 21:06:01 44° E 21:10:58 10° NNE visible
11 Sep 8.5 22:44:05 12° WSW 22:47:03 18° WNW 22:50:26 10° NW visible
12 Sep 7.1 20:29:16 12° SE 20:32:38 23° E 20:36:45 10° NNE visible
12 Sep 7.5 22:09:39 16° SW 22:13:12 33° W 22:17:53 10° NNW visible
13 Sep 7.8 19:57:36 10° E 19:59:20 12° E 20:01:23 10° ENE visible
13 Sep 6.3 21:34:52 13° SSW 21:39:32 65° W 21:44:44 10° N visible
